Weather History for Molokai, HI

Change the Weather History Date:

Tuesday, January 14, 2014

  Actual Average Record
Temperature  
Mean Temperature 72 °F -  
Max Temperature 77 °F 77 °F 84 °F (1991)
Min Temperature 68 °F 63 °F 55 °F (1963)
Cooling Degree Days 8    
Growing Degree Days 22 (Base 50)    
Moisture  
Dew Point 70 °F    
Average Humidity 94    
Maximum Humidity 100    
Minimum Humidity 79    
Precipitation  
Precipitation 1.41 in - - ()
Sea Level Pressure  
Sea Level Pressure 29.91 in    
Wind  
Wind Speed 4 mph (South)    
Max Wind Speed 15 mph    
Max Gust Speed 30 mph    
Visibility 7 miles    
Events Rain    
Averages and records for this station are not official NWS values.
T = Trace of Precipitation, MM = Missing Value Source: NWS Daily Summary

Daily Weather History Graph

Daily Weather History Graph

Search for Another Location

Airport:

Trip Planner

Search our weather history database for the weather conditions in past years. The results will help you decide how hot, cold, wet, or windy it might be!

Date:

Astronomy

Jan. 14, 2014 Rise Set
Actual Time 7:08 AM HST 6:07 PM HST
Civil Twilight 6:44 AM HST 6:30 PM HST
Nautical Twilight 6:17 AM HST 6:58 PM HST
Astronomical Twilight 5:50 AM HST 7:25 PM HST
Moon 5:17 PM HST (1/14) 5:54 AM HST (1/14)
Length of Visible Light 11h 46m
Length of Day
10h 58m
Waxing Gibbous, 99% of the Moon is Illuminated
Jan 14
Waxing Gibbous
Jan 15
Full
Jan 23
Last Quarter
Jan 30
New
Feb 6
First Quarter

Hourly Weather History & Observations

Time (HST) Temp. Dew Point Humidity Pressure Visibility Wind Dir Wind Speed Gust Speed Precip Events Conditions
12:03 AM 69.8 °F 69.8 °F 100% 29.93 in 1.2 mi Calm Calm - 0.22 in Rain Heavy Rain
12:08 AM 69.8 °F 69.8 °F 100% 29.93 in 3.0 mi Calm Calm - 0.23 in Rain Light Rain
12:18 AM 69.8 °F 69.8 °F 100% 29.93 in 4.0 mi Calm Calm - 0.25 in Rain Light Rain
12:35 AM 69.8 °F 69.8 °F 100% 29.92 in 6.0 mi East 4.6 mph - 0.25 in   Mostly Cloudy
12:54 AM 70.0 °F 70.0 °F 100% 29.93 in 6.0 mi Calm Calm - 0.25 in   Mostly Cloudy
1:04 AM 71.6 °F 71.6 °F 100% 29.92 in 7.0 mi Calm Calm - N/A   Mostly Cloudy
1:54 AM 69.1 °F 68.0 °F 96% 29.92 in 8.0 mi WNW 9.2 mph - 0.00 in Rain Light Rain
2:08 AM 68.0 °F 68.0 °F 100% 29.90 in 1.5 mi WNW 15.0 mph 23.0 mph 0.08 in Rain Heavy Rain
2:16 AM 71.6 °F 69.8 °F 94% 29.90 in 1.0 mi Variable 4.6 mph 29.9 mph 0.39 in Rain Light Rain
2:18 AM 71.6 °F 69.8 °F 94% 29.90 in 1.8 mi Variable 4.6 mph 29.9 mph 0.39 in Rain Light Rain
2:20 AM 71.6 °F 69.8 °F 94% 29.91 in 3.0 mi West 4.6 mph 16.1 mph 0.39 in Rain Light Rain
2:23 AM 69.8 °F 69.8 °F 100% 29.91 in 1.8 mi Calm Calm - 0.43 in Rain Heavy Rain
2:30 AM 69.8 °F 68.0 °F 94% 29.91 in 1.5 mi NNW 3.5 mph - 0.53 in Rain Light Rain
2:32 AM 69.8 °F 68.0 °F 94% 29.90 in 2.0 mi NNW 4.6 mph - 0.53 in Rain Light Rain
2:38 AM 69.8 °F 68.0 °F 94% 29.90 in 10.0 mi NNW 5.8 mph - 0.53 in Rain Light Rain
2:54 AM 69.1 °F 69.1 °F 100% 29.91 in 6.0 mi Calm Calm - 0.56 in Rain Light Rain
3:43 AM 69.8 °F 69.8 °F 100% 29.90 in 8.0 mi NE 4.6 mph - 0.00 in   Mostly Cloudy
3:54 AM 70.0 °F 70.0 °F 100% 29.90 in 4.0 mi NNW 3.5 mph - 0.05 in Rain Heavy Rain
4:54 AM 71.1 °F 70.0 °F 96% 29.90 in 5.0 mi ESE 3.5 mph - 0.07 in Rain Light Rain
5:10 AM 69.8 °F 69.8 °F 100% 29.90 in 6.0 mi Variable 5.8 mph 16.1 mph 0.00 in Rain Light Rain
5:12 AM 69.8 °F 69.8 °F 100% 29.90 in 6.0 mi South 5.8 mph - 0.00 in Rain Light Rain
5:21 AM 69.8 °F 68.0 °F 94% 29.90 in 8.0 mi South 4.6 mph - 0.00 in   Scattered Clouds
5:54 AM 69.1 °F 69.1 °F 100% 29.91 in 8.0 mi SE 5.8 mph - 0.05 in Rain Light Rain
6:17 AM 69.8 °F 69.8 °F 100% 29.89 in 7.0 mi SSE 5.8 mph - 0.00 in   Mostly Cloudy
6:26 AM 69.8 °F 69.8 °F 100% 29.90 in 7.0 mi South 6.9 mph - 0.00 in   Mostly Cloudy
6:54 AM 71.1 °F 71.1 °F 100% 29.91 in 6.0 mi SE 4.6 mph - 0.00 in   Overcast
7:54 AM 72.0 °F 71.1 °F 97% 29.92 in 10.0 mi South 4.6 mph - N/A   Mostly Cloudy
8:06 AM 73.4 °F 71.6 °F 94% 29.92 in 10.0 mi South 8.1 mph - N/A   Mostly Cloudy
8:44 AM 73.4 °F 71.6 °F 94% 29.92 in 10.0 mi South 10.4 mph - N/A   Mostly Cloudy
8:54 AM 73.9 °F 71.1 °F 91% 29.94 in 10.0 mi South 9.2 mph - N/A   Mostly Cloudy
9:10 AM 73.4 °F 69.8 °F 88% 29.93 in 10.0 mi South 11.5 mph - N/A   Mostly Cloudy
9:54 AM 75.9 °F 71.1 °F 85% 29.96 in 10.0 mi SSW 12.7 mph - N/A   Mostly Cloudy
10:54 AM 77.0 °F 73.0 °F 88% 29.95 in 10.0 mi South 13.8 mph 19.6 mph 0.04 in   Mostly Cloudy
11:25 AM 75.2 °F 69.8 °F 83% 29.93 in 10.0 mi SSE 12.7 mph - N/A   Overcast
11:37 AM 71.6 °F 69.8 °F 94% 29.93 in 1.5 mi South 13.8 mph - 0.02 in Rain Heavy Rain
11:46 AM 71.6 °F 69.8 °F 94% 29.93 in 6.0 mi SSW 5.8 mph - 0.16 in Rain Heavy Rain
11:54 AM 72.0 °F 72.0 °F 100% 29.93 in 6.0 mi Calm Calm - 0.32 in Rain Heavy Rain
12:01 PM 73.4 °F 71.6 °F 94% 29.91 in 6.0 mi South 8.1 mph - 0.07 in Rain Heavy Rain
12:14 PM 75.2 °F 73.4 °F 94% 29.90 in 10.0 mi South 12.7 mph - 0.07 in   Mostly Cloudy
12:54 PM 77.0 °F 72.0 °F 84% 29.89 in 10.0 mi South 11.5 mph - 0.07 in   Mostly Cloudy
1:54 PM 75.9 °F 71.1 °F 85% 29.87 in 10.0 mi South 13.8 mph - N/A   Scattered Clouds
2:54 PM 77.0 °F 70.0 °F 79% 29.86 in 10.0 mi SSW 11.5 mph - N/A   Scattered Clouds
3:54 PM 73.9 °F 71.1 °F 91% 29.87 in 6.0 mi SSW 8.1 mph - 0.00 in Rain Light Rain
4:54 PM 75.0 °F 69.1 °F 82% 29.88 in 10.0 mi SW 4.6 mph - 0.00 in   Mostly Cloudy
5:54 PM 73.9 °F 69.1 °F 85% 29.90 in 10.0 mi Calm Calm - N/A   Scattered Clouds
6:54 PM 73.0 °F 70.0 °F 90% 29.91 in 10.0 mi Calm Calm - N/A   Partly Cloudy
7:54 PM 71.1 °F 68.0 °F 90% 29.92 in 10.0 mi SSW 3.5 mph - N/A   Partly Cloudy
8:54 PM 70.0 °F 68.0 °F 93% 29.93 in 10.0 mi Calm Calm - N/A   Clear
9:54 PM 69.1 °F 68.0 °F 96% 29.94 in 10.0 mi Calm Calm - N/A   Clear
10:54 PM 68.0 °F 66.9 °F 96% 29.94 in 10.0 mi Calm Calm - N/A   Clear
11:54 PM 68.0 °F 66.9 °F 96% 29.93 in 10.0 mi ESE 3.5 mph - N/A   Clear